Regional Weather Roundup
Issued by NWS

Home | Current Version | Previous Version | Text Only | Print | Product List | Glossary Off
Versions: 1 2 3 4 5 6 7 8 9 10 11 12 13 14 15 16 17 18 19 20 21 22 23 24 25 26 27 28 29 30 31 32 33 34 35 36 37 38 39 40 41 42 43 44 45 46 47 48 49 50

000
ASUS45 KABQ 280510
RWRNM
NEW MEXICO REGIONAL WEATHER ROUNDUP
NATIONAL WEATHER SERVICE ALBUQUERQUE NM
1100 PM MDT THU APR 27 2017

NOTE: "FAIR" MEANS FEW OR NO CLOUDS BELOW 12,000 FEET AGL WITH NO
       SIGNIFICANT WEATHER OR OBSTRUCTIONS TO VISION.

      THIS PRODUCT IS RELEASED AS TWO VERSIONS.  ONE VERSION NEAR
      THE TOP OF THE HOUR CONTAINING PRELIMINARY DATA FROM ALBUQUERQUE
      AND OTHER STATIONS.  A FINAL VERSION WITH ADDITIONAL DATA IS
      ISSUED ABOUT 10 MINUTES AFTER THE HOUR.

NMZ501-503-504-510>518-280600-
NORTHWEST PLATEAU/NORTHCENTRAL MOUNTAINS

CITY           SKY/WX    TMP DP  RH WIND       PRES   REMARKS
FARMINGTON     MOCLDY    48  17  29 NW14G25   29.74R
LOS ALAMOS     FAIR      42  30  61 CALM      29.80R
SANTA FE       CLOUDY    48  32  53 N15G25    29.75R
TAOS             N/A     45  18  33 W17G26    29.74F
ANGEL FIRE     CLOUDY    35  26  69 SW6       29.77S WCI  30

$$
NMZ402-403-502-505>509-280600-
WESTCENTRAL MOUNTAINS/SOUTHWEST MOUNTAINS

CITY           SKY/WX    TMP DP  RH WIND       PRES   REMARKS
GALLUP         CLOUDY    53  21  28 N9        29.79R
GRANTS         CLOUDY    51  20  29 NW9       29.79S
SILVER CITY    FAIR      58  32  37 E8        29.80R

$$
NMZ407-409-411-412-280600-
SOUTHERN DESERTS

CITY           SKY/WX    TMP DP  RH WIND       PRES   REMARKS
DEMING         FAIR      71  33  24 W17G24    29.72R
LAS CRUCES     FAIR      73  29  20 NE6       29.74R
HOLLOMAN AFB   FAIR      76  28  17 W8        29.68R
ALAMOGORDO     FAIR      72  32  23 S8        29.68R
T OR C         FAIR      70  25  18 W6        29.68R

$$
NMZ519>523-280600-
CENTRAL VALLEYS/CENTRAL HIGHLANDS

CITY           SKY/WX    TMP DP  RH WIND       PRES   REMARKS
ALBUQUERQUE    MOCLDY    57  28  33 NW9       29.75R
MORIARTY ARPT  CLOUDY    49  33  53 W8        29.77R
CLINES CORNERS FAIR      43  28  55 NW12      29.76R
BELEN          CLOUDY    56  36  45 N10       29.73R
SOCORRO        FAIR      69  24  19 W13G24    29.68R

$$
NMZ524>526-539-540-280600-
SOUTHCENTRAL MOUNTAINS

CITY           SKY/WX    TMP DP  RH WIND       PRES   REMARKS
RUIDOSO        FAIR      63  19  19 W18G31    29.78R

$$
NMZ527>531-280600-
NORTHEAST HIGHLANDS/NORTHEAST PLAINS

CITY           SKY/WX    TMP DP  RH WIND       PRES   REMARKS
LAS VEGAS      FAIR      39  24  55 N6        29.71R WCI  35
RATON          FAIR      40  22  48 SE6       29.67R
CLAYTON        FAIR      44  35  70 NW8       29.62R

$$
NMZ532>537-280600-
EASTCENTRAL PLAINS

CITY           SKY/WX    TMP DP  RH WIND       PRES   REMARKS
SANTA ROSA     FAIR      54  30  39 N10       29.63R
TUCUMCARI      FAIR      57  34  41 NW9       29.58R
CANNON AFB     CLOUDY    60  36  39 NE12      29.60R
CLOVIS AIRPORT FAIR      61  36  39 NE10      29.60R

$$
NMZ028-029-538-280600-
SOUTHEAST PLAINS

CITY           SKY/WX    TMP DP  RH WIND       PRES   REMARKS
ROSWELL        FAIR      78  24  13 W14         N/A
ARTESIA        FAIR      79  30  17 W18G24    29.55R
CARLSBAD       FAIR      82  26  13 W20       29.52R
HOBBS          FAIR      73  30  20 W14       29.55S


$$




USA.gov is the U.S. government's official web portal to all federal, state and local government web resources and services.